Time,TemperatureF,DewpointF,PressureIn,WindDirection,WindDirectionDegrees,WindSpeedMPH,WindSpeedGustMPH,Humidity,HourlyPrecipIn,Conditions,Clouds,dailyrainin,SoftwareType,DateUTC
2013-04-27 00:01:00,47.2,45.5,30.15,East,90,4.3,4.3,94,0.04,,,0.00,WUHU216HW,2013-04-27 05:01:00,
2013-04-27 00:06:00,47.2,45.5,30.15,ENE,68,3.8,4.3,94,0.04,,,0.00,WUHU216HW,2013-04-27 05:06:00,
2013-04-27 00:11:00,47.2,45.5,30.15,ENE,68,2.0,5.4,94,0.04,,,0.00,WUHU216HW,2013-04-27 05:11:00,
2013-04-27 00:16:00,47.2,45.5,30.15,East,90,3.4,5.4,94,0.03,,,0.00,WUHU216HW,2013-04-27 05:16:00,
2013-04-27 00:21:00,47.2,45.5,30.15,ESE,113,3.8,3.8,94,0.02,,,0.00,WUHU216HW,2013-04-27 05:21:00,
2013-04-27 00:26:00,47.2,45.5,30.15,East,90,4.7,4.7,94,0.02,,,0.00,WUHU216HW,2013-04-27 05:26:00,
2013-04-27 00:31:00,47.2,45.5,30.15,ESE,113,4.7,4.7,94,0.02,,,0.00,WUHU216HW,2013-04-27 05:31:00,
2013-04-27 00:36:00,47.2,45.5,30.15,ESE,113,4.0,4.7,94,0.01,,,0.00,WUHU216HW,2013-04-27 05:36:00,
2013-04-27 00:41:00,47.2,45.5,30.15,East,90,2.7,4.7,94,0.01,,,0.00,WUHU216HW,2013-04-27 05:41:00,
2013-04-27 00:46:00,47.2,45.5,30.16,ESE,113,6.0,6.0,94,0.00,,,0.00,WUHU216HW,2013-04-27 05:46:00,
2013-04-27 00:51:00,47.2,45.5,30.16,SE,135,3.8,6.0,94,0.00,,,0.00,WUHU216HW,2013-04-27 05:51:00,
2013-04-27 00:56:00,47.2,45.5,30.16,ESE,113,4.3,6.0,94,0.01,,,0.00,WUHU216HW,2013-04-27 05:56:00,
2013-04-27 01:01:00,47.2,45.5,30.16,SSE,158,1.6,4.3,94,0.03,,,0.02,WUHU216HW,2013-04-27 06:01:00,
2013-04-27 01:06:00,47.2,45.5,30.16,ESE,113,4.3,4.3,94,0.03,,,0.02,WUHU216HW,2013-04-27 06:06:00,
2013-04-27 01:11:00,47.2,45.5,30.16,SE,135,4.0,4.3,94,0.04,,,0.04,WUHU216HW,2013-04-27 06:11:00,
2013-04-27 01:16:00,47.2,45.5,30.15,East,90,3.1,4.3,94,0.04,,,0.04,WUHU216HW,2013-04-27 06:16:00,
2013-04-27 01:21:00,47.0,45.4,30.15,ESE,113,4.9,4.9,94,0.04,,,0.04,WUHU216HW,2013-04-27 06:21:00,
2013-04-27 01:26:00,47.0,45.4,30.15,SE,135,4.0,4.9,94,0.04,,,0.04,WUHU216HW,2013-04-27 06:26:00,
2013-04-27 01:31:00,47.0,45.4,30.15,SE,135,2.7,6.0,94,0.04,,,0.04,WUHU216HW,2013-04-27 06:31:00,
2013-04-27 01:36:00,47.0,45.4,30.15,ESE,113,2.2,6.0,94,0.04,,,0.04,WUHU216HW,2013-04-27 06:36:00,
2013-04-27 01:41:00,47.0,45.4,30.14,ESE,113,4.5,4.5,94,0.04,,,0.04,WUHU216HW,2013-04-27 06:41:00,
2013-04-27 01:46:00,47.0,45.4,30.14,East,90,2.2,4.5,94,0.04,,,0.04,WUHU216HW,2013-04-27 06:46:00,
2013-04-27 01:51:00,47.0,45.4,30.13,ESE,113,6.3,6.3,94,0.04,,,0.04,WUHU216HW,2013-04-27 06:51:00,
2013-04-27 01:56:00,47.0,45.4,30.13,East,90,3.1,6.3,94,0.01,,,0.04,WUHU216HW,2013-04-27 06:56:00,
2013-04-27 02:01:00,47.0,45.4,30.13,East,90,2.9,6.3,94,0.01,,,0.04,WUHU216HW,2013-04-27 07:01:00,
2013-04-27 02:06:00,46.8,45.2,30.12,NE,45,1.8,4.3,94,0.01,,,0.04,WUHU216HW,2013-04-27 07:06:00,
2013-04-27 02:11:00,46.8,45.2,30.12,ESE,113,5.1,7.2,94,0.01,,,0.04,WUHU216HW,2013-04-27 07:11:00,
2013-04-27 02:16:00,46.8,45.2,30.12,ESE,113,4.0,7.2,94,0.01,,,0.04,WUHU216HW,2013-04-27 07:16:00,
2013-04-27 02:21:00,46.8,45.2,30.12,ESE,113,3.4,5.1,94,0.01,,,0.04,WUHU216HW,2013-04-27 07:21:00,
2013-04-27 02:26:00,46.8,45.2,30.12,East,90,4.0,4.0,94,0.01,,,0.04,WUHU216HW,2013-04-27 07:26:00,
2013-04-27 02:31:00,46.8,45.2,30.11,ENE,68,3.8,4.0,94,0.01,,,0.04,WUHU216HW,2013-04-27 07:31:00,
2013-04-27 02:36:00,46.8,45.2,30.11,East,90,4.7,4.7,94,0.01,,,0.04,WUHU216HW,2013-04-27 07:36:00,
2013-04-27 02:41:00,46.8,45.2,30.11,ENE,68,5.4,5.4,94,0.01,,,0.04,WUHU216HW,2013-04-27 07:41:00,
2013-04-27 02:46:00,46.8,45.2,30.10,ENE,68,3.8,5.4,94,0.01,,,0.04,WUHU216HW,2013-04-27 07:46:00,
2013-04-27 02:52:00,46.8,45.2,30.10,East,90,4.7,5.4,94,0.02,,,0.06,WUHU216HW,2013-04-27 07:52:00,
2013-04-27 02:57:00,46.8,45.2,30.10,ENE,68,3.8,4.7,94,0.02,,,0.06,WUHU216HW,2013-04-27 07:57:00,
2013-04-27 03:02:00,46.8,45.2,30.09,SE,135,5.4,5.4,94,0.02,,,0.06,WUHU216HW,2013-04-27 08:02:00,
2013-04-27 03:07:00,46.8,45.2,30.09,East,90,2.7,5.4,94,0.02,,,0.06,WUHU216HW,2013-04-27 08:07:00,
2013-04-27 03:12:00,46.8,45.2,30.09,East,90,4.0,5.8,94,0.01,,,0.06,WUHU216HW,2013-04-27 08:12:00,
2013-04-27 03:17:00,46.6,45.0,30.09,ENE,68,6.0,6.0,94,0.01,,,0.06,WUHU216HW,2013-04-27 08:17:00,
2013-04-27 03:22:00,46.8,45.2,30.09,ESE,113,5.6,6.0,94,0.01,,,0.06,WUHU216HW,2013-04-27 08:22:00,
2013-04-27 03:27:00,46.8,45.2,30.08,East,90,7.2,7.2,94,0.01,,,0.06,WUHU216HW,2013-04-27 08:27:00,
2013-04-27 03:32:00,46.8,45.2,30.08,ESE,113,4.7,7.2,94,0.01,,,0.06,WUHU216HW,2013-04-27 08:32:00,
2013-04-27 03:37:00,46.8,45.2,30.09,ESE,113,4.7,7.2,94,0.01,,,0.06,WUHU216HW,2013-04-27 08:37:00,
2013-04-27 03:42:00,46.8,45.2,30.09,ESE,113,2.5,4.7,94,0.01,,,0.06,WUHU216HW,2013-04-27 08:42:00,
2013-04-27 03:47:00,46.8,45.2,30.08,ENE,68,4.0,4.0,94,0.01,,,0.07,WUHU216HW,2013-04-27 08:47:00,
2013-04-27 03:52:00,46.8,45.2,30.09,East,90,4.0,4.0,94,0.02,,,0.08,WUHU216HW,2013-04-27 08:52:00,
2013-04-27 03:57:00,46.8,45.2,30.09,SE,135,3.4,4.3,94,0.03,,,0.09,WUHU216HW,2013-04-27 08:57:00,
2013-04-27 04:02:00,46.8,45.2,30.08,East,90,3.8,4.3,94,0.04,,,0.09,WUHU216HW,2013-04-27 09:02:00,
2013-04-27 04:07:00,46.8,45.2,30.08,ESE,113,6.5,6.5,94,0.05,,,0.11,WUHU216HW,2013-04-27 09:07:00,
2013-04-27 04:12:00,46.6,45.0,30.08,ESE,113,3.4,6.5,94,0.06,,,0.12,WUHU216HW,2013-04-27 09:12:00,
2013-04-27 04:17:00,46.8,45.2,30.09,East,90,4.7,6.5,94,0.08,,,0.13,WUHU216HW,2013-04-27 09:17:00,
2013-04-27 04:22:00,46.6,45.0,30.08,NE,45,4.7,4.7,94,0.10,,,0.15,WUHU216HW,2013-04-27 09:22:00,
2013-04-27 04:27:00,46.6,45.0,30.08,East,90,1.8,4.7,94,0.11,,,0.17,WUHU216HW,2013-04-27 09:27:00,
2013-04-27 04:32:00,46.6,45.0,30.08,ESE,113,3.4,4.7,94,0.12,,,0.18,WUHU216HW,2013-04-27 09:32:00,
2013-04-27 04:37:00,46.6,45.0,30.08,ESE,113,2.2,3.4,94,0.14,,,0.20,WUHU216HW,2013-04-27 09:37:00,
2013-04-27 04:42:00,46.6,45.0,30.07,East,90,6.5,6.5,94,0.16,,,0.22,WUHU216HW,2013-04-27 09:42:00,
2013-04-27 04:47:00,46.6,45.0,30.07,East,90,4.0,6.5,94,0.16,,,0.24,WUHU216HW,2013-04-27 09:47:00,
2013-04-27 04:52:00,46.6,45.0,30.07,East,90,3.8,4.9,94,0.18,,,0.26,WUHU216HW,2013-04-27 09:52:00,
2013-04-27 04:57:00,46.6,45.0,30.07,East,90,5.1,5.1,94,0.18,,,0.27,WUHU216HW,2013-04-27 09:57:00,
2013-04-27 05:02:00,46.6,45.0,30.07,ESE,113,4.3,5.1,94,0.20,,,0.29,WUHU216HW,2013-04-27 10:02:00,
2013-04-27 05:07:00,46.6,45.0,30.07,ENE,68,1.8,5.1,94,0.19,,,0.31,WUHU216HW,2013-04-27 10:07:00,
2013-04-27 05:12:00,46.6,45.0,30.07,SE,135,2.7,4.9,94,0.19,,,0.32,WUHU216HW,2013-04-27 10:12:00,
2013-04-27 05:17:00,46.6,45.0,30.07,East,90,2.9,4.9,94,0.19,,,0.34,WUHU216HW,2013-04-27 10:17:00,
2013-04-27 05:22:00,46.6,45.0,30.07,East,90,2.7,2.9,94,0.21,,,0.37,WUHU216HW,2013-04-27 10:22:00,
2013-04-27 05:27:00,46.8,45.2,30.07,SE,135,1.1,3.1,94,0.22,,,0.39,WUHU216HW,2013-04-27 10:27:00,
2013-04-27 05:32:00,46.6,45.0,30.07,ESE,113,1.3,3.1,94,0.22,,,0.40,WUHU216HW,2013-04-27 10:32:00,
2013-04-27 05:37:00,46.8,45.2,30.07,ESE,113,4.0,4.0,94,0.19,,,0.41,WUHU216HW,2013-04-27 10:37:00,
2013-04-27 05:42:00,46.8,45.2,30.07,ENE,68,4.5,4.5,94,0.18,,,0.41,WUHU216HW,2013-04-27 10:42:00,
2013-04-27 05:47:00,46.8,45.2,30.06,ENE,68,3.4,4.5,94,0.18,,,0.42,WUHU216HW,2013-04-27 10:47:00,
2013-04-27 05:52:00,46.8,45.2,30.07,ENE,68,2.9,4.5,94,0.17,,,0.43,WUHU216HW,2013-04-27 10:52:00,
2013-04-27 05:57:00,46.8,45.5,30.07,ENE,68,2.7,3.8,95,0.16,,,0.45,WUHU216HW,2013-04-27 10:57:00,
2013-04-27 06:02:00,46.8,45.2,30.06,ESE,113,2.7,3.8,94,0.15,,,0.46,WUHU216HW,2013-04-27 11:02:00,
2013-04-27 06:07:00,46.8,45.2,30.06,ENE,68,4.7,4.7,94,0.16,,,0.47,WUHU216HW,2013-04-27 11:07:00,
2013-04-27 06:12:00,46.8,45.2,30.06,ENE,68,2.5,4.7,94,0.15,,,0.47,WUHU216HW,2013-04-27 11:12:00,
2013-04-27 06:17:00,46.8,45.2,30.06,ESE,113,2.9,4.7,94,0.10,,,0.47,WUHU216HW,2013-04-27 11:17:00,
2013-04-27 06:22:00,46.8,45.2,30.06,NE,45,1.8,2.9,94,0.09,,,0.48,WUHU216HW,2013-04-27 11:22:00,
2013-04-27 06:27:00,46.8,45.5,30.06,ENE,68,3.1,3.1,95,0.09,,,0.48,WUHU216HW,2013-04-27 11:27:00,
2013-04-27 06:32:00,46.8,45.5,30.07,East,90,2.7,3.1,95,0.09,,,0.49,WUHU216HW,2013-04-27 11:32:00,
2013-04-27 06:37:00,46.8,45.5,30.07,ENE,68,2.0,3.1,95,0.08,,,0.49,WUHU216HW,2013-04-27 11:37:00,
2013-04-27 06:42:00,46.8,45.5,30.07,ENE,68,2.0,4.0,95,0.08,,,0.51,WUHU216HW,2013-04-27 11:42:00,
2013-04-27 06:47:00,46.8,45.5,30.07,ENE,68,4.0,4.0,95,0.08,,,0.51,WUHU216HW,2013-04-27 11:47:00,
2013-04-27 06:52:00,46.8,45.5,30.06,NE,45,1.1,4.0,95,0.07,,,0.51,WUHU216HW,2013-04-27 11:52:00,
2013-04-27 06:57:00,46.8,45.5,30.06,ENE,68,3.4,4.0,95,0.04,,,0.51,WUHU216HW,2013-04-27 11:57:00,
2013-04-27 07:02:00,46.8,45.5,30.06,ENE,68,2.5,3.4,95,0.04,,,0.51,WUHU216HW,2013-04-27 12:02:00,
2013-04-27 07:07:00,46.8,45.5,30.07,ENE,68,4.7,4.7,95,0.03,,,0.51,WUHU216HW,2013-04-27 12:07:00,
2013-04-27 07:12:00,46.8,45.5,30.07,NE,45,3.4,4.7,95,0.03,,,0.51,WUHU216HW,2013-04-27 12:12:00,
2013-04-27 07:17:00,47.0,45.6,30.06,ENE,68,1.6,4.7,95,0.02,,,0.51,WUHU216HW,2013-04-27 12:17:00,
2013-04-27 07:22:00,47.0,45.6,30.07,NE,45,4.0,4.0,95,0.02,,,0.51,WUHU216HW,2013-04-27 12:22:00,
2013-04-27 07:27:00,47.0,45.6,30.07,NE,45,3.1,4.0,95,0.02,,,0.51,WUHU216HW,2013-04-27 12:27:00,
2013-04-27 07:32:00,46.8,45.5,30.07,NE,45,3.8,3.8,95,0.02,,,0.51,WUHU216HW,2013-04-27 12:32:00,
2013-04-27 07:37:00,47.0,45.6,30.07,ENE,68,4.7,4.7,95,0.01,,,0.51,WUHU216HW,2013-04-27 12:37:00,
2013-04-27 07:42:00,47.0,45.6,30.07,NE,45,3.4,4.7,95,0.01,,,0.51,WUHU216HW,2013-04-27 12:42:00,
2013-04-27 07:47:00,47.2,45.8,30.07,NNE,23,2.5,4.7,95,0.01,,,0.51,WUHU216HW,2013-04-27 12:47:00,
2013-04-27 07:52:00,47.2,45.5,30.07,NE,45,2.5,3.4,94,0.01,,,0.51,WUHU216HW,2013-04-27 12:52:00,
2013-04-27 07:57:00,47.2,45.5,30.07,NNE,23,2.7,3.4,94,0.01,,,0.51,WUHU216HW,2013-04-27 12:57:00,
2013-04-27 08:02:00,47.3,45.7,30.07,NE,45,3.8,3.8,94,0.01,,,0.51,WUHU216HW,2013-04-27 13:02:00,
2013-04-27 08:07:00,47.3,45.7,30.07,NE,45,4.3,4.3,94,0.01,,,0.51,WUHU216HW,2013-04-27 13:07:00,
2013-04-27 08:12:00,47.3,45.7,30.07,ENE,68,4.9,4.9,94,0.01,,,0.51,WUHU216HW,2013-04-27 13:12:00,
2013-04-27 08:17:00,47.3,45.7,30.07,East,90,4.0,5.4,94,0.02,,,0.52,WUHU216HW,2013-04-27 13:17:00,
2013-04-27 08:22:00,47.5,45.9,30.07,ENE,68,4.0,5.4,94,0.01,,,0.52,WUHU216HW,2013-04-27 13:22:00,
2013-04-27 08:27:00,47.5,45.9,30.07,NE,45,4.7,4.7,94,0.01,,,0.52,WUHU216HW,2013-04-27 13:27:00,
2013-04-27 08:32:00,47.5,45.9,30.07,NE,45,2.5,4.7,94,0.01,,,0.52,WUHU216HW,2013-04-27 13:32:00,
2013-04-27 08:37:00,47.5,45.9,30.07,ENE,68,4.5,4.7,94,0.01,,,0.52,WUHU216HW,2013-04-27 13:37:00,
2013-04-27 08:42:00,47.7,46.1,30.07,ESE,113,2.9,4.5,94,0.01,,,0.52,WUHU216HW,2013-04-27 13:42:00,
2013-04-27 08:48:00,47.7,46.1,30.07,NE,45,6.7,6.7,94,0.01,,,0.52,WUHU216HW,2013-04-27 13:48:00,
2013-04-27 08:53:00,47.7,46.1,30.07,ENE,68,4.0,6.7,94,0.01,,,0.52,WUHU216HW,2013-04-27 13:53:00,
2013-04-27 08:58:00,47.9,46.3,30.07,NE,45,4.3,4.3,94,0.01,,,0.52,WUHU216HW,2013-04-27 13:58:00,
2013-04-27 09:03:00,47.9,46.3,30.07,North,0,2.0,4.3,94,0.01,,,0.52,WUHU216HW,2013-04-27 14:03:00,
2013-04-27 09:08:00,47.9,46.3,30.07,ENE,68,3.6,4.3,94,0.00,,,0.52,WUHU216HW,2013-04-27 14:08:00,
2013-04-27 09:13:00,47.9,46.3,30.07,NE,45,1.6,3.6,94,0.00,,,0.52,WUHU216HW,2013-04-27 14:13:00,
2013-04-27 09:18:00,47.9,46.3,30.07,ENE,68,3.6,3.6,94,0.00,,,0.52,WUHU216HW,2013-04-27 14:18:00,
2013-04-27 09:23:00,47.9,46.3,30.07,ENE,68,3.4,3.6,94,0.00,,,0.52,WUHU216HW,2013-04-27 14:23:00,
2013-04-27 09:28:00,47.9,46.3,30.07,ENE,68,5.1,5.1,94,0.00,,,0.52,WUHU216HW,2013-04-27 14:28:00,
2013-04-27 09:33:00,47.9,46.3,30.07,NE,45,3.6,5.1,94,0.00,,,0.52,WUHU216HW,2013-04-27 14:33:00,
2013-04-27 09:38:00,48.1,46.4,30.07,NE,45,4.0,5.1,94,0.00,,,0.52,WUHU216HW,2013-04-27 14:38:00,
2013-04-27 09:43:00,48.1,46.4,30.06,NE,45,3.4,5.4,94,0.00,,,0.52,WUHU216HW,2013-04-27 14:43:00,
2013-04-27 09:48:00,48.2,46.6,30.06,ENE,68,2.5,5.4,94,0.00,,,0.52,WUHU216HW,2013-04-27 14:48:00,
2013-04-27 09:53:00,48.4,46.8,30.06,NE,45,1.8,3.4,94,0.00,,,0.52,WUHU216HW,2013-04-27 14:53:00,
2013-04-27 09:58:00,48.2,46.6,30.06,ENE,68,6.3,6.3,94,0.00,,,0.52,WUHU216HW,2013-04-27 14:58:00,
2013-04-27 10:03:00,48.4,46.8,30.06,NE,45,2.5,6.3,94,0.00,,,0.52,WUHU216HW,2013-04-27 15:03:00,
2013-04-27 10:08:00,48.4,46.8,30.06,NE,45,8.9,8.9,94,0.00,,,0.52,WUHU216HW,2013-04-27 15:08:00,
2013-04-27 10:13:00,48.6,47.0,30.06,NE,45,4.0,8.9,94,0.00,,,0.52,WUHU216HW,2013-04-27 15:13:00,
2013-04-27 10:18:00,48.6,47.0,30.06,NE,45,6.9,8.9,94,0.00,,,0.52,WUHU216HW,2013-04-27 15:18:00,
2013-04-27 10:23:00,48.6,47.0,30.06,NE,45,6.3,6.9,94,0.00,,,0.52,WUHU216HW,2013-04-27 15:23:00,
2013-04-27 10:28:00,48.6,47.0,30.06,ENE,68,2.5,6.3,94,0.00,,,0.52,WUHU216HW,2013-04-27 15:28:00,
2013-04-27 10:33:00,49.0,47.4,30.05,ENE,68,5.4,6.3,94,0.00,,,0.52,WUHU216HW,2013-04-27 15:33:00,
2013-04-27 10:38:00,49.0,47.4,30.06,ENE,68,4.5,5.4,94,0.00,,,0.52,WUHU216HW,2013-04-27 15:38:00,
2013-04-27 10:43:00,49.1,47.4,30.06,NE,45,4.0,4.5,94,0.00,,,0.52,WUHU216HW,2013-04-27 15:43:00,
2013-04-27 10:48:00,49.1,47.4,30.05,ENE,68,5.8,5.8,94,0.00,,,0.52,WUHU216HW,2013-04-27 15:48:00,
2013-04-27 10:53:00,49.1,47.4,30.05,ESE,113,6.5,6.5,94,0.00,,,0.52,WUHU216HW,2013-04-27 15:53:00,
2013-04-27 10:58:00,49.1,47.2,30.06,NE,45,4.0,6.7,93,0.00,,,0.52,WUHU216HW,2013-04-27 15:58:00,
2013-04-27 11:03:00,49.3,47.3,30.06,ENE,68,5.4,6.7,93,0.00,,,0.52,WUHU216HW,2013-04-27 16:03:00,
2013-04-27 11:08:00,49.3,47.3,30.06,ENE,68,3.4,5.4,93,0.00,,,0.52,WUHU216HW,2013-04-27 16:08:00,
2013-04-27 11:13:00,49.3,47.3,30.06,ENE,68,4.3,5.4,93,0.00,,,0.52,WUHU216HW,2013-04-27 16:13:00,
2013-04-27 11:18:00,49.3,47.3,30.06,NE,45,4.7,4.7,93,0.00,,,0.52,WUHU216HW,2013-04-27 16:18:00,
2013-04-27 11:23:00,49.3,47.3,30.06,ENE,68,2.0,4.7,93,0.00,,,0.52,WUHU216HW,2013-04-27 16:23:00,
2013-04-27 11:28:00,49.3,47.3,30.06,NNE,23,2.7,4.7,93,0.00,,,0.52,WUHU216HW,2013-04-27 16:28:00,
2013-04-27 11:33:00,49.3,47.3,30.06,ENE,68,4.0,4.0,93,0.00,,,0.52,WUHU216HW,2013-04-27 16:33:00,
2013-04-27 11:38:00,49.5,47.5,30.06,NE,45,4.7,4.7,93,0.00,,,0.52,WUHU216HW,2013-04-27 16:38:00,
2013-04-27 11:43:00,49.7,47.7,30.06,ENE,68,2.5,4.7,93,0.00,,,0.52,WUHU216HW,2013-04-27 16:43:00,
2013-04-27 11:48:00,49.5,47.3,30.06,ENE,68,2.2,4.7,92,0.00,,,0.52,WUHU216HW,2013-04-27 16:48:00,
2013-04-27 11:53:00,49.5,47.5,30.06,ENE,68,4.0,5.8,93,0.00,,,0.52,WUHU216HW,2013-04-27 16:53:00,
2013-04-27 11:58:00,49.5,47.5,30.06,NNE,23,6.7,6.7,93,0.00,,,0.52,WUHU216HW,2013-04-27 16:58:00,
2013-04-27 12:03:00,49.3,47.3,30.06,NE,45,4.9,6.7,93,0.00,,,0.52,WUHU216HW,2013-04-27 17:03:00,
2013-04-27 12:08:00,49.3,47.3,30.06,ENE,68,4.7,6.7,93,0.00,,,0.52,WUHU216HW,2013-04-27 17:08:00,
2013-04-27 12:13:00,49.5,47.5,30.06,NE,45,4.7,7.8,93,0.00,,,0.52,WUHU216HW,2013-04-27 17:13:00,
2013-04-27 12:18:00,49.7,47.7,30.06,NNE,23,2.0,7.8,93,0.00,,,0.52,WUHU216HW,2013-04-27 17:18:00,
2013-04-27 12:23:00,49.9,47.9,30.05,NE,45,4.7,4.7,93,0.00,,,0.52,WUHU216HW,2013-04-27 17:23:00,
2013-04-27 12:28:00,49.7,47.7,30.05,NNE,23,6.3,6.3,93,0.00,,,0.52,WUHU216HW,2013-04-27 17:28:00,
2013-04-27 12:33:00,49.9,47.9,30.05,ESE,113,2.2,6.3,93,0.00,,,0.52,WUHU216HW,2013-04-27 17:33:00,
2013-04-27 12:38:00,50.0,48.1,30.05,ENE,68,1.8,5.1,93,0.00,,,0.52,WUHU216HW,2013-04-27 17:38:00,
2013-04-27 12:43:00,50.0,48.1,30.05,NE,45,2.5,2.5,93,0.00,,,0.52,WUHU216HW,2013-04-27 17:43:00,
2013-04-27 12:48:00,50.0,47.7,30.04,NE,45,4.3,4.3,92,0.00,,,0.52,WUHU216HW,2013-04-27 17:48:00,
2013-04-27 12:53:00,50.0,48.1,30.04,ENE,68,2.9,4.3,93,0.00,,,0.52,WUHU216HW,2013-04-27 17:53:00,
2013-04-27 12:58:00,50.2,47.9,30.04,East,90,1.6,3.4,92,0.00,,,0.52,WUHU216HW,2013-04-27 17:58:00,
2013-04-27 13:03:00,50.4,48.1,30.04,ENE,68,4.7,4.7,92,0.00,,,0.52,WUHU216HW,2013-04-27 18:03:00,
2013-04-27 13:08:00,50.4,48.1,30.04,ESE,113,5.1,5.1,92,0.00,,,0.52,WUHU216HW,2013-04-27 18:08:00,
2013-04-27 13:13:00,50.4,48.1,30.04,East,90,4.0,5.1,92,0.00,,,0.52,WUHU216HW,2013-04-27 18:13:00,
2013-04-27 13:18:00,50.4,48.1,30.04,ENE,68,2.9,5.1,92,0.00,,,0.52,WUHU216HW,2013-04-27 18:18:00,
2013-04-27 13:23:00,50.4,48.1,30.04,ENE,68,3.6,5.4,92,0.00,,,0.52,WUHU216HW,2013-04-27 18:23:00,
2013-04-27 13:28:00,50.6,48.2,30.04,East,90,2.2,5.4,92,0.00,,,0.52,WUHU216HW,2013-04-27 18:28:00,
2013-04-27 13:33:00,50.4,48.1,30.04,East,90,3.8,4.7,92,0.00,,,0.52,WUHU216HW,2013-04-27 18:33:00,
2013-04-27 13:38:00,50.4,48.1,30.04,ENE,68,6.5,6.5,92,0.00,,,0.52,WUHU216HW,2013-04-27 18:38:00,
2013-04-27 13:43:00,50.4,48.1,30.03,NNE,23,5.4,6.5,92,0.01,,,0.53,WUHU216HW,2013-04-27 18:43:00,
2013-04-27 13:48:00,50.8,48.4,30.03,East,90,2.2,6.5,92,0.01,,,0.53,WUHU216HW,2013-04-27 18:48:00,
2013-04-27 13:53:00,50.9,48.6,30.03,NE,45,2.9,3.8,92,0.01,,,0.53,WUHU216HW,2013-04-27 18:53:00,
2013-04-27 13:58:00,50.9,48.6,30.03,NE,45,5.4,5.4,92,0.01,,,0.53,WUHU216HW,2013-04-27 18:58:00,
2013-04-27 14:03:00,51.1,48.5,30.03,NE,45,6.3,6.3,91,0.01,,,0.53,WUHU216HW,2013-04-27 19:03:00,
2013-04-27 14:08:00,51.5,48.9,30.03,East,90,2.0,6.3,91,0.01,,,0.53,WUHU216HW,2013-04-27 19:08:00,
2013-04-27 14:13:00,51.7,48.8,30.03,ENE,68,3.4,3.4,90,0.01,,,0.53,WUHU216HW,2013-04-27 19:13:00,
2013-04-27 14:18:00,50.9,48.1,30.04,ENE,68,4.0,5.4,90,0.01,,,0.53,WUHU216HW,2013-04-27 19:18:00,
2013-04-27 14:23:00,50.9,48.3,30.03,NE,45,3.4,5.4,91,0.01,,,0.53,WUHU216HW,2013-04-27 19:23:00,
2013-04-27 14:28:00,50.9,48.3,30.03,ENE,68,4.0,4.0,91,0.01,,,0.53,WUHU216HW,2013-04-27 19:28:00,
2013-04-27 14:33:00,51.1,48.5,30.03,ENE,68,2.2,4.0,91,0.01,,,0.53,WUHU216HW,2013-04-27 19:33:00,
2013-04-27 14:38:00,51.8,49.5,30.03,ENE,68,2.5,4.0,92,0.01,,,0.53,WUHU216HW,2013-04-27 19:38:00,
2013-04-27 14:43:00,51.8,49.5,30.03,NE,45,2.0,2.9,92,0.00,,,0.53,WUHU216HW,2013-04-27 19:43:00,
2013-04-27 14:48:00,51.7,48.5,30.03,ENE,68,2.5,3.4,89,0.00,,,0.53,WUHU216HW,2013-04-27 19:48:00,
2013-04-27 14:53:00,51.8,49.2,30.02,NE,45,3.4,3.4,91,0.00,,,0.53,WUHU216HW,2013-04-27 19:53:00,
2013-04-27 14:58:00,51.8,49.5,30.02,NE,45,3.4,3.4,92,0.00,,,0.53,WUHU216HW,2013-04-27 19:58:00,
2013-04-27 15:03:00,51.7,48.8,30.02,North,0,6.0,6.0,90,0.00,,,0.53,WUHU216HW,2013-04-27 20:03:00,
2013-04-27 15:08:00,51.7,48.8,30.02,NE,45,4.0,6.0,90,0.00,,,0.53,WUHU216HW,2013-04-27 20:08:00,
2013-04-27 15:13:00,51.7,48.8,30.02,ENE,68,3.6,6.0,90,0.00,,,0.53,WUHU216HW,2013-04-27 20:13:00,
2013-04-27 15:18:00,51.8,49.2,30.02,ENE,68,2.9,4.0,91,0.00,,,0.53,WUHU216HW,2013-04-27 20:18:00,
2013-04-27 15:23:00,51.8,49.2,30.02,NNE,23,5.4,5.4,91,0.00,,,0.53,WUHU216HW,2013-04-27 20:23:00,
2013-04-27 15:28:00,51.8,49.2,30.02,North,0,4.0,5.4,91,0.00,,,0.53,WUHU216HW,2013-04-27 20:28:00,
2013-04-27 15:33:00,51.8,49.0,30.01,NE,45,3.6,5.4,90,0.00,,,0.53,WUHU216HW,2013-04-27 20:33:00,
2013-04-27 15:38:00,52.0,49.4,30.01,NE,45,2.5,4.0,91,0.00,,,0.53,WUHU216HW,2013-04-27 20:38:00,
2013-04-27 15:43:00,52.0,49.4,30.01,NNE,23,4.7,4.7,91,0.00,,,0.53,WUHU216HW,2013-04-27 20:43:00,
2013-04-27 15:48:00,52.2,49.3,30.01,NNE,23,4.3,4.7,90,0.00,,,0.53,WUHU216HW,2013-04-27 20:48:00,
2013-04-27 15:53:00,52.2,49.1,30.01,NE,45,3.6,4.3,89,0.00,,,0.53,WUHU216HW,2013-04-27 20:53:00,
2013-04-27 15:58:00,52.2,49.1,30.01,NE,45,5.4,5.4,89,0.00,,,0.53,WUHU216HW,2013-04-27 20:58:00,
2013-04-27 16:03:00,52.2,49.1,30.01,ENE,68,4.0,5.4,89,0.00,,,0.53,WUHU216HW,2013-04-27 21:03:00,
2013-04-27 16:08:00,52.4,49.2,30.00,NE,45,2.7,5.4,89,0.00,,,0.53,WUHU216HW,2013-04-27 21:08:00,
2013-04-27 16:13:00,52.6,49.4,30.00,NE,45,3.4,4.0,89,0.00,,,0.53,WUHU216HW,2013-04-27 21:13:00,
2013-04-27 16:18:00,52.2,49.1,30.00,NNE,23,2.5,3.4,89,0.00,,,0.53,WUHU216HW,2013-04-27 21:18:00,
2013-04-27 16:23:00,52.2,49.1,30.00,NNE,23,3.1,3.4,89,0.00,,,0.53,WUHU216HW,2013-04-27 21:23:00,
2013-04-27 16:28:00,52.2,49.1,30.00,NE,45,3.4,3.4,89,0.00,,,0.53,WUHU216HW,2013-04-27 21:28:00,
2013-04-27 16:33:00,52.6,49.7,30.00,NNE,23,3.4,3.4,90,0.00,,,0.53,WUHU216HW,2013-04-27 21:33:00,
2013-04-27 16:38:00,52.7,49.6,30.00,NE,45,2.7,3.4,89,0.00,,,0.53,WUHU216HW,2013-04-27 21:38:00,
2013-04-27 16:43:00,52.6,49.1,29.99,NE,45,4.0,4.0,88,0.00,,,0.53,WUHU216HW,2013-04-27 21:43:00,
2013-04-27 16:48:00,52.6,49.1,29.99,NE,45,3.1,4.0,88,0.00,,,0.53,WUHU216HW,2013-04-27 21:48:00,
2013-04-27 16:53:00,52.6,49.1,29.99,North,0,2.5,3.6,88,0.00,,,0.53,WUHU216HW,2013-04-27 21:53:00,
2013-04-27 16:58:00,52.4,48.9,29.99,NNE,23,3.8,3.8,88,0.00,,,0.53,WUHU216HW,2013-04-27 21:58:00,
2013-04-27 17:03:00,52.2,48.7,29.99,NE,45,4.5,4.5,88,0.00,,,0.53,WUHU216HW,2013-04-27 22:03:00,
2013-04-27 17:08:00,52.0,48.9,29.99,NNE,23,2.5,4.5,89,0.00,,,0.53,WUHU216HW,2013-04-27 22:08:00,
2013-04-27 17:13:00,52.0,48.9,29.99,NE,45,2.0,2.9,89,0.00,,,0.53,WUHU216HW,2013-04-27 22:13:00,
2013-04-27 17:18:00,52.2,48.7,29.99,ENE,68,2.7,2.7,88,0.00,,,0.53,WUHU216HW,2013-04-27 22:18:00,
2013-04-27 17:23:00,52.2,48.7,29.99,ENE,68,2.0,2.7,88,0.00,,,0.53,WUHU216HW,2013-04-27 22:23:00,
2013-04-27 17:28:00,52.2,48.7,29.99,NNE,23,4.0,4.0,88,0.00,,,0.53,WUHU216HW,2013-04-27 22:28:00,
2013-04-27 17:33:00,52.0,48.5,29.99,NE,45,4.7,4.7,88,0.00,,,0.53,WUHU216HW,2013-04-27 22:33:00,
2013-04-27 17:38:00,51.8,48.7,29.99,NE,45,4.7,4.7,89,0.00,,,0.53,WUHU216HW,2013-04-27 22:38:00,
2013-04-27 17:43:00,51.7,48.5,29.98,NE,45,2.0,4.7,89,0.00,,,0.53,WUHU216HW,2013-04-27 22:43:00,
2013-04-27 17:48:00,51.7,48.5,29.98,East,90,1.8,4.7,89,0.00,,,0.53,WUHU216HW,2013-04-27 22:48:00,
2013-04-27 17:53:00,51.5,48.3,29.98,ENE,68,1.1,2.0,89,0.00,,,0.53,WUHU216HW,2013-04-27 22:53:00,
2013-04-27 17:58:00,51.5,48.3,29.98,ENE,68,0.9,1.3,89,0.00,,,0.53,WUHU216HW,2013-04-27 22:58:00,
2013-04-27 18:03:00,51.5,48.3,29.98,ENE,68,1.8,1.8,89,0.00,,,0.53,WUHU216HW,2013-04-27 23:03:00,
2013-04-27 18:08:00,51.5,48.3,29.98,NNE,23,1.1,1.8,89,0.00,,,0.53,WUHU216HW,2013-04-27 23:08:00,
2013-04-27 18:13:00,51.5,48.3,29.98,NE,45,2.7,3.1,89,0.00,,,0.53,WUHU216HW,2013-04-27 23:13:00,
2013-04-27 18:18:00,51.5,48.3,29.98,NE,45,4.0,4.0,89,0.00,,,0.53,WUHU216HW,2013-04-27 23:18:00,
2013-04-27 18:23:00,51.5,48.3,29.98,NE,45,3.1,4.0,89,0.00,,,0.53,WUHU216HW,2013-04-27 23:23:00,
2013-04-27 18:28:00,51.5,48.3,29.98,NNE,23,2.7,3.4,89,0.00,,,0.53,WUHU216HW,2013-04-27 23:28:00,
2013-04-27 18:33:00,51.5,48.6,29.98,North,0,1.6,3.1,90,0.00,,,0.53,WUHU216HW,2013-04-27 23:33:00,
2013-04-27 18:38:00,51.5,48.3,29.98,NNE,23,2.2,2.7,89,0.00,,,0.53,WUHU216HW,2013-04-27 23:38:00,
2013-04-27 18:43:00,51.5,48.6,29.98,North,0,0.7,2.5,90,0.00,,,0.53,WUHU216HW,2013-04-27 23:43:00,
2013-04-27 18:48:00,51.5,48.3,29.98,NNE,23,1.6,2.5,89,0.00,,,0.53,WUHU216HW,2013-04-27 23:48:00,
2013-04-27 18:53:00,51.5,48.3,29.98,North,0,0.9,1.6,89,0.00,,,0.53,WUHU216HW,2013-04-27 23:53:00,
2013-04-27 18:58:00,51.5,48.3,29.98,North,0,1.6,3.8,89,0.00,,,0.53,WUHU216HW,2013-04-27 23:58:00,
2013-04-27 19:03:00,51.5,48.3,29.98,NNE,23,1.8,3.8,89,0.00,,,0.53,WUHU216HW,2013-04-28 00:03:00,
2013-04-27 19:08:00,51.3,48.2,29.98,NNE,23,2.0,2.0,89,0.00,,,0.53,WUHU216HW,2013-04-28 00:08:00,
2013-04-27 19:13:00,51.3,48.2,29.97,North,0,0.0,2.0,89,0.00,,,0.53,WUHU216HW,2013-04-28 00:13:00,
2013-04-27 19:18:00,51.3,48.4,29.97,NNW,338,0.4,2.0,90,0.00,,,0.53,WUHU216HW,2013-04-28 00:18:00,
2013-04-27 19:23:00,51.1,48.2,29.97,North,0,1.1,1.1,90,0.00,,,0.53,WUHU216HW,2013-04-28 00:23:00,
2013-04-27 19:28:00,51.1,48.2,29.98,NW,315,0.0,1.1,90,0.00,,,0.53,WUHU216HW,2013-04-28 00:28:00,
2013-04-27 19:33:00,51.1,48.2,29.97,North,0,1.1,1.1,90,0.00,,,0.53,WUHU216HW,2013-04-28 00:33:00,
2013-04-27 19:38:00,51.1,48.2,29.97,North,0,0.0,1.1,90,0.00,,,0.53,WUHU216HW,2013-04-28 00:38:00,
2013-04-27 19:43:00,51.1,48.2,29.97,NW,315,0.0,1.1,90,0.00,,,0.53,WUHU216HW,2013-04-28 00:43:00,
2013-04-27 19:48:00,50.9,48.1,29.97,North,0,0.0,0.0,90,0.00,,,0.53,WUHU216HW,2013-04-28 00:48:00,
2013-04-27 19:53:00,50.9,48.3,29.97,North,0,0.9,0.9,91,0.00,,,0.53,WUHU216HW,2013-04-28 00:53:00,
2013-04-27 19:58:00,50.8,48.2,29.97,North,0,0.4,0.9,91,0.00,,,0.53,WUHU216HW,2013-04-28 00:58:00,
2013-04-27 20:03:00,50.8,48.2,29.97,North,0,0.0,0.9,91,0.00,,,0.53,WUHU216HW,2013-04-28 01:03:00,
2013-04-27 20:08:00,50.8,48.2,29.97,North,0,0.0,0.4,91,0.00,,,0.53,WUHU216HW,2013-04-28 01:08:00,
2013-04-27 20:13:00,50.8,48.2,29.97,North,0,0.0,0.0,91,0.00,,,0.53,WUHU216HW,2013-04-28 01:13:00,
2013-04-27 20:18:00,50.6,48.0,29.97,North,0,0.0,0.0,91,0.00,,,0.53,WUHU216HW,2013-04-28 01:18:00,
2013-04-27 20:23:00,50.6,48.0,29.97,North,0,0.0,0.0,91,0.00,,,0.53,WUHU216HW,2013-04-28 01:23:00,
2013-04-27 20:28:00,50.6,48.0,29.97,North,0,0.0,0.0,91,0.00,,,0.53,WUHU216HW,2013-04-28 01:28:00,
2013-04-27 20:33:00,50.6,48.0,29.97,NNW,338,0.0,0.0,91,0.00,,,0.53,WUHU216HW,2013-04-28 01:33:00,
2013-04-27 20:38:00,50.6,48.0,29.97,NNW,338,0.0,0.0,91,0.00,,,0.53,WUHU216HW,2013-04-28 01:38:00,
2013-04-27 20:43:00,50.4,47.8,29.97,NNW,338,0.0,0.0,91,0.00,,,0.53,WUHU216HW,2013-04-28 01:43:00,
2013-04-27 20:48:00,50.4,47.8,29.97,NNW,338,0.0,0.0,91,0.00,,,0.53,WUHU216HW,2013-04-28 01:48:00,
2013-04-27 20:53:00,50.4,47.8,29.97,NNW,338,0.0,0.0,91,0.00,,,0.53,WUHU216HW,2013-04-28 01:53:00,
2013-04-27 20:58:00,50.4,47.8,29.97,NNW,338,0.0,0.0,91,0.00,,,0.53,WUHU216HW,2013-04-28 01:58:00,
2013-04-27 21:03:00,50.4,47.8,29.97,NNW,338,0.0,0.0,91,0.00,,,0.53,WUHU216HW,2013-04-28 02:03:00,
2013-04-27 21:08:00,50.4,47.8,29.97,NNW,338,0.0,0.0,91,0.00,,,0.53,WUHU216HW,2013-04-28 02:08:00,
2013-04-27 21:13:00,50.4,47.8,29.97,NNW,338,0.0,0.0,91,0.00,,,0.53,WUHU216HW,2013-04-28 02:13:00,
2013-04-27 21:18:00,50.4,47.8,29.97,NNW,338,0.9,0.9,91,0.00,,,0.53,WUHU216HW,2013-04-28 02:18:00,
2013-04-27 21:23:00,50.4,47.8,29.97,North,0,1.3,1.3,91,0.00,,,0.53,WUHU216HW,2013-04-28 02:23:00,
2013-04-27 21:28:00,50.2,47.6,29.97,North,0,0.0,1.3,91,0.00,,,0.53,WUHU216HW,2013-04-28 02:28:00,
2013-04-27 21:33:00,50.2,47.9,29.97,North,0,0.0,0.4,92,0.00,,,0.53,WUHU216HW,2013-04-28 02:33:00,
2013-04-27 21:38:00,50.2,47.6,29.97,North,0,0.0,0.0,91,0.00,,,0.53,WUHU216HW,2013-04-28 02:38:00,
2013-04-27 21:43:00,50.2,47.9,29.97,WNW,293,0.4,0.4,92,0.00,,,0.53,WUHU216HW,2013-04-28 02:43:00,
2013-04-27 21:48:00,50.0,47.7,29.97,WNW,293,0.0,0.4,92,0.00,,,0.53,WUHU216HW,2013-04-28 02:48:00,
2013-04-27 21:53:00,50.0,47.7,29.97,WNW,293,0.0,0.4,92,0.00,,,0.53,WUHU216HW,2013-04-28 02:53:00,
2013-04-27 21:58:00,50.0,47.7,29.97,WNW,293,0.0,0.0,92,0.00,,,0.53,WUHU216HW,2013-04-28 02:58:00,
2013-04-27 22:03:00,50.0,47.7,29.97,WNW,293,0.0,0.0,92,0.00,,,0.53,WUHU216HW,2013-04-28 03:03:00,
2013-04-27 22:08:00,50.0,47.7,29.97,WNW,293,0.0,0.0,92,0.00,,,0.53,WUHU216HW,2013-04-28 03:08:00,
2013-04-27 22:13:00,50.0,47.7,29.97,WNW,293,0.0,0.0,92,0.00,,,0.53,WUHU216HW,2013-04-28 03:13:00,
2013-04-27 22:18:00,50.0,47.7,29.97,WNW,293,0.0,0.0,92,0.00,,,0.53,WUHU216HW,2013-04-28 03:18:00,
2013-04-27 22:23:00,50.0,47.7,29.97,WNW,293,0.0,0.0,92,0.00,,,0.53,WUHU216HW,2013-04-28 03:23:00,
2013-04-27 22:28:00,49.9,47.6,29.97,WNW,293,0.0,0.0,92,0.00,,,0.53,WUHU216HW,2013-04-28 03:28:00,
2013-04-27 22:33:00,50.0,47.7,29.97,WNW,293,0.0,0.0,92,0.00,,,0.53,WUHU216HW,2013-04-28 03:33:00,
2013-04-27 22:38:00,49.9,47.6,29.97,WNW,293,0.0,0.0,92,0.00,,,0.53,WUHU216HW,2013-04-28 03:38:00,
2013-04-27 22:43:00,50.0,47.7,29.96,SW,225,2.0,2.0,92,0.00,,,0.53,WUHU216HW,2013-04-28 03:43:00,
2013-04-27 22:48:00,49.9,47.9,29.97,South,180,1.3,2.0,93,0.00,,,0.53,WUHU216HW,2013-04-28 03:48:00,
2013-04-27 22:53:00,49.9,47.6,29.96,South,180,1.3,2.0,92,0.00,,,0.53,WUHU216HW,2013-04-28 03:53:00,
2013-04-27 22:58:00,49.7,47.4,29.97,NNW,338,0.0,1.3,92,0.00,,,0.53,WUHU216HW,2013-04-28 03:58:00,
2013-04-27 23:01:00,49.7,47.4,29.97,NNW,338,0.0,1.3,92,0.00,,,0.53,WUHU216HW,2013-04-28 04:01:00,
2013-04-27 23:06:00,49.5,47.3,29.97,North,0,1.6,2.2,92,0.00,,,0.53,WUHU216HW,2013-04-28 04:06:00,
2013-04-27 23:11:00,49.3,47.1,29.97,North,0,0.4,2.2,92,0.00,,,0.53,WUHU216HW,2013-04-28 04:11:00,
2013-04-27 23:16:00,49.3,47.1,29.96,North,0,0.0,1.1,92,0.00,,,0.53,WUHU216HW,2013-04-28 04:16:00,
2013-04-27 23:21:00,48.8,46.6,29.96,North,0,0.0,0.4,92,0.00,,,0.53,WUHU216HW,2013-04-28 04:21:00,
2013-04-27 23:26:00,48.6,46.7,29.96,West,270,0.0,0.0,93,0.00,,,0.53,WUHU216HW,2013-04-28 04:26:00,
2013-04-27 23:31:00,48.4,46.5,29.95,WSW,248,0.9,1.1,93,0.00,,,0.53,WUHU216HW,2013-04-28 04:31:00,
2013-04-27 23:36:00,48.4,46.5,29.95,SW,225,1.3,1.3,93,0.00,,,0.53,WUHU216HW,2013-04-28 04:36:00,
2013-04-27 23:41:00,48.4,46.5,29.95,West,270,0.0,1.3,93,0.00,,,0.53,WUHU216HW,2013-04-28 04:41:00,
2013-04-27 23:46:00,48.1,46.2,29.95,SW,225,1.1,1.3,93,0.00,,,0.53,WUHU216HW,2013-04-28 04:46:00,
2013-04-27 23:51:00,48.1,46.4,29.95,SW,225,0.4,1.6,94,0.00,,,0.53,WUHU216HW,2013-04-28 04:51:00,
2013-04-27 23:56:00,47.9,46.3,29.95,WSW,248,0.0,1.6,94,0.00,,,0.53,WUHU216HW,2013-04-28 04:56:00,